This is the latest recevied weather packets stored in our database for station/object WA4TPR. If no packets are shown the sender has not sent any weather packets the latest 10 day(s).
| Time | Temp. | Humidity | Pressure | Rain* | Wind** | Luminosity | Snow |
|---|---|---|---|---|---|---|---|
| 1778024335 | 26.67° C | 70% | 1018.5 hPa | 0 mm | - | 27 W/m² | - |
| 1778024033 | 26.67° C | 69% | 1018.3 hPa | 0 mm | - | 43 W/m² | - |
| 1778023730 | 26.67° C | 69% | 1018.7 hPa | 0 mm | - | 51 W/m² | - |
| 1778023428 | 26.67° C | 68% | 1018.5 hPa | 0 mm | - | 53 W/m² | - |
| 1778023124 | 26.67° C | 68% | 1018.6 hPa | 0 mm | - | 59 W/m² | - |
| 1778022822 | 27.22° C | 67% | 1018.5 hPa | 0 mm | - | 66 W/m² | - |
| 1778022520 | 27.22° C | 67% | 1018.4 hPa | 0 mm | - | 72 W/m² | - |
| 1778022217 | 27.22° C | 66% | 1018.4 hPa | 0 mm | - | 83 W/m² | - |
| 1778021913 | 27.78° C | 65% | 1018.5 hPa | 0 mm | - | 106 W/m² | - |
| 1778021611 | 27.78° C | 65% | 1018.4 hPa | 0 mm | - | 123 W/m² | - |
| 1778021305 | 27.78° C | 65% | 1018.2 hPa | 0 mm | - | 131 W/m² | - |
| 1778021004 | 27.78° C | 66% | 1018.3 hPa | 0 mm | - | 142 W/m² | - |
| 1778020701 | 27.78° C | 66% | 1018.1 hPa | 0 mm | - | 143 W/m² | - |
| 1778020398 | 27.78° C | 66% | 1018.3 hPa | 0 mm | - | 125 W/m² | - |
| 1778020093 | 28.33° C | 64% | 1018.2 hPa | 0 mm | - | 186 W/m² | - |
| 1778019790 | 28.33° C | 64% | 1018.2 hPa | 0 mm | - | 168 W/m² | - |
| 1778019487 | 28.33° C | 65% | 1018.1 hPa | 0 mm | - | 165 W/m² | - |
| 1778019183 | 28.33° C | 64% | 1018.1 hPa | 0 mm | - | 154 W/m² | - |
| 1778018880 | 28.33° C | 63% | 1018.1 hPa | 0 mm | - | 187 W/m² | - |
| 1778018578 | 28.33° C | 63% | 1018.1 hPa | 0 mm | - | 193 W/m² | - |
| 1778018276 | 27.78° C | 64% | 1017.9 hPa | 0 mm | - | 194 W/m² | - |
| 1778017973 | 28.33° C | 63% | 1018.1 hPa | 0 mm | - | 197 W/m² | - |
| 1778017671 | 28.33° C | 63% | 1018 hPa | 0 mm | - | 219 W/m² | - |
| 1778017368 | 28.33° C | 63% | 1018.1 hPa | 0 mm | - | 234 W/m² | - |
| 1778017065 | 28.89° C | 61% | 1018 hPa | 0 mm | - | 210 W/m² | - |
* Rain latest hour (hover to see other rain measurements)
** Current wind speed in m/s (hover to see current wind gust speed)